KD7TTL Weather Reports


Display with metric or nautical units.
time (UTC)temp
F
wind
direction
speed
MPH
gust
MPH
rain 1hr
in
rain 24hr
in
rain mn
in
humidity
%
barometer
mb
20260510224009 62 9 0.0 5.0 0.00 0.00 0.00 66 1021.5
20260510223514 62 72 1.0 5.0 0.00 0.00 0.00 63 1021.5
20260510223030 63 55 1.0 4.0 0.00 0.00 0.00 64 1021.5
20260510222513 63 291 2.0 4.0 0.00 0.00 0.00 65 1021.4
20260510222014 63 22 1.0 4.0 0.00 0.00 0.00 64 1021.3
20260510221530 63 19 1.0 4.0 0.00 0.00 0.00 66 1021.3
20260510221009 63 38 0.0 3.0 0.00 0.00 0.00 64 1021.2
20260510220510 63 309 0.0 3.0 0.00 0.00 0.00 65 1021.1
20260510220011 63 41 1.0 4.0 0.00 0.00 0.00 64 1021.1
20260510215502 62 265 0.0 4.0 0.00 0.00 0.00 63 1021.0
20260510215003 62 265 1.0 4.0 0.00 0.00 0.00 64 1020.9
20260510214511 62 39 2.0 7.0 0.00 0.00 0.00 66 1021.0
20260510214003 62 325 2.0 9.0 0.00 0.00 0.00 64 1021.1
20260510213504 62 51 2.0 9.0 0.00 0.00 0.00 67 1021.1
20260510213012 62 49 3.0 9.0 0.00 0.00 0.00 66 1021.1
20260510212503 62 126 1.0 5.0 0.00 0.00 0.00 66 1021.1
20260510212005 62 309 2.0 7.0 0.00 0.00 0.00 65 1021.1
20260510211519 61 265 1.0 7.0 0.00 0.00 0.00 68 1021.0
20260510211004 61 301 2.0 5.0 0.00 0.00 0.00 72 1021.0
20260510210505 61 86 1.0 4.0 0.00 0.00 0.00 68 1020.9
20260510210012 61 108 1.0 4.0 0.00 0.00 0.00 69 1020.9
20260510205503 61 325 0.0 4.0 0.00 0.00 0.00 69 1020.8
20260510205004 60 76 1.0 6.0 0.00 0.00 0.00 71 1020.8
20260510204508 61 296 1.0 6.0 0.00 0.00 0.00 68 1020.8
20260510204003 61 9 1.0 4.0 0.00 0.00 0.00 68 1020.8
20260510203503 61 137 0.0 4.0 0.00 0.00 0.00 70 1020.7
20260510203012 61 9 1.0 5.0 0.00 0.00 0.00 68 1020.6
20260510202506 61 221 1.0 5.0 0.00 0.00 0.00 67 1020.6
20260510202004 61 341 1.0 5.0 0.00 0.00 0.00 67 1020.5
20260510201508 61 76 1.0 5.0 0.00 0.00 0.00 68 1020.5
20260510201002 61 41 2.0 6.0 0.00 0.00 0.00 66 1020.5
20260510200502 62 93 2.0 6.0 0.00 0.00 0.00 67 1020.4
20260510200017 62 99 1.0 6.0 0.00 0.00 0.00 64 1020.4
20260510195502 62 51 3.0 6.0 0.00 0.00 0.00 67 1020.4
20260510195003 62 162 1.0 6.0 0.00 0.00 0.00 65 1020.4
20260510194517 62 325 1.0 10.0 0.00 0.00 0.00 66 1020.4
20260510194004 62 34 1.0 10.0 0.00 0.00 0.00 68 1020.3
20260510193505 61 25 2.0 10.0 0.00 0.00 0.00 70 1020.3
20260510193011 60 51 1.0 7.0 0.00 0.00 0.00 72 1020.3
20260510192504 60 59 2.0 7.0 0.00 0.00 0.00 70 1020.3
20260510192006 60 39 2.0 6.0 0.00 0.00 0.00 71 1020.5
20260510191522 59 50 2.0 6.0 0.00 0.00 0.00 71 1020.5
20260510191004 59 63 3.0 6.0 0.00 0.00 0.00 70 1020.4
20260510190503 59 15 0.0 9.0 0.00 0.00 0.00 71 1020.3
20260510190012 58 305 1.0 9.0 0.00 0.00 0.00 75 1020.3
20260510185505 58 51 2.0 8.0 0.00 0.00 0.00 73 1020.2
20260510185009 58 38 4.0 8.0 0.00 0.00 0.00 74 1020.2
20260510184510 57 46 2.0 8.0 0.00 0.00 0.00 73 1020.2
20260510184005 57 9 0.0 6.0 0.00 0.00 0.00 76 1020.2
20260510183507 57 42 3.0 6.0 0.00 0.00 0.00 74 1020.2
20260510183011 57 34 1.0 4.0 0.00 0.00 0.00 76 1020.2
20260510182505 57 51 1.0 4.0 0.00 0.00 0.00 76 1020.1
20260510182003 57 51 0.0 5.0 0.00 0.00 0.00 76 1020.2
20260510181508 57 59 2.0 5.0 0.00 0.00 0.00 73 1020.1
20260510181007 57 221 0.0 2.0 0.00 0.00 0.00 75 1020.0
20260510180502 57 158 1.0 3.0 0.00 0.00 0.00 73 1020.0
20260510180011 56 120 1.0 3.0 0.00 0.00 0.00 75 1020.1
20260510175502 56 56 0.0 5.0 0.00 0.00 0.00 76 1020.1
20260510175005 56 178 2.0 5.0 0.00 0.00 0.00 75 1020.0
20260510174510 56 22 1.0 9.0 0.00 0.00 0.00 76 1020.0
20260510174005 56 83 3.0 9.0 0.00 0.00 0.00 76 1019.8
20260510173507 56 103 1.0 5.0 0.00 0.00 0.00 76 1019.9
20260510173011 56 9 2.0 5.0 0.00 0.00 0.00 77 1020.1
20260510172503 56 108 1.0 5.0 0.00 0.00 0.00 78 1020.0
20260510172005 55 178 1.0 5.0 0.00 0.00 0.00 78 1020.1
20260510171512 55 49 3.0 5.0 0.00 0.00 0.00 78 1020.1
20260510171004 55 26 2.0 8.0 0.00 0.00 0.00 78 1020.0
20260510170505 55 36 2.0 8.0 0.00 0.00 0.00 77 1020.0
20260510170010 55 17 1.0 7.0 0.00 0.00 0.00 79 1019.8
20260510165503 55 28 3.0 9.0 0.00 0.00 0.00 77 1019.4
20260510165006 55 24 1.0 9.0 0.00 0.00 0.00 78 1019.3
20260510164530 55 48 4.0 7.0 0.00 0.00 0.00 78 1019.2
20260510164004 54 309 1.0 6.0 0.00 0.00 0.00 79 1019.5
20260510163504 54 74 3.0 6.0 0.00 0.00 0.00 77 1019.5
20260510163013 54 15 1.0 2.0 0.00 0.00 0.00 80 1019.4
20260510162504 54 247 0.0 4.0 0.00 0.00 0.00 79 1019.4
20260510162003 54 17 0.0 4.0 0.00 0.00 0.00 80 1019.4
20260510161512 54 34 2.0 4.0 0.00 0.00 0.00 80 1019.2
20260510161003 53 26 1.0 3.0 0.00 0.00 0.00 82 1019.2
20260510160503 53 292 0.0 5.0 0.00 0.00 0.00 81 1018.9
20260510160013 53 309 1.0 6.0 0.00 0.00 0.00 81 1018.9
20260510155503 53 44 2.0 6.0 0.00 0.00 0.00 81 1019.1
20260510155003 53 28 2.0 6.0 0.00 0.00 0.00 82 1019.1
20260510154508 53 48 1.0 6.0 0.00 0.00 0.00 82 1019.1
20260510154007 53 291 1.0 6.0 0.00 0.00 0.00 84 1019.2
20260510153508 52 309 0.0 3.0 0.00 0.00 0.00 86 1019.2
20260510153013 52 51 0.0 2.0 0.00 0.00 0.00 88 1019.1
20260510152506 51 34 0.0 4.0 0.00 0.00 0.00 90 1019.0
20260510152004 51 51 0.0 5.0 0.00 0.00 0.00 89 1018.9
20260510151510 51 46 0.0 5.0 0.00 0.00 0.00 92 1018.8
20260510151005 50 51 1.0 3.0 0.00 0.00 0.00 95 1018.8
20260510150504 50 44 1.0 3.0 0.00 0.00 0.00 95 1019.0
20260510150028 49 28 2.0 3.0 0.00 0.00 0.00 95 1018.9
20260510145511 49 57 1.0 3.0 0.00 0.00 0.00 95 1018.9
20260510145011 49 137 0.0 2.0 0.00 0.00 0.00 95 1019.2
20260510144539 49 93 0.0 2.0 0.00 0.00 0.00 95 1019.1
20260510144008 49 44 1.0 2.0 0.00 0.00 0.00 95 1019.0
20260510143512 48 93 0.0 1.0 0.00 0.00 0.00 95 1019.2
20260510143039 48 178 0.0 2.0 0.00 0.00 0.00 95 1018.9
20260510142512 48 205 0.0 2.0 0.00 0.00 0.00 95 1018.8
20260510142016 48 9 1.0 3.0 0.00 0.00 0.00 95 1018.6
20260510141527 47 48 1.0 3.0 0.00 0.00 0.00 95 1018.8
20260510141011 47 51 0.0 2.0 0.00 0.00 0.00 95 1019.0
20260510140513 47 41 0.0 2.0 0.00 0.00 0.00 95 1018.7
20260510140030 46 59 0.0 2.0 0.00 0.00 0.00 95 1018.6
20260510135510 46 34 1.0 2.0 0.00 0.00 0.00 95 1018.6
20260510135014 46 41 1.0 2.0 0.00 0.00 0.00 94 1018.8
20260510134528 45 26 0.0 2.0 0.00 0.00 0.00 94 1018.7
20260510134009 45 51 0.0 2.0 0.00 0.00 0.00 94 1018.6
20260510133513 45 137 0.0 2.0 0.00 0.00 0.00 94 1018.7
20260510133028 45 51 1.0 2.0 0.00 0.00 0.00 94 1018.7
20260510132515 45 51 0.0 2.0 0.00 0.00 0.00 94 1018.8
20260510132014 45 93 0.0 2.0 0.00 0.00 0.00 93 1018.9
20260510131534 45 76 0.0 2.0 0.00 0.00 0.00 93 1018.7
20260510131017 45 76 0.0 1.0 0.00 0.00 0.00 93 1018.5
20260510130512 45 51 0.0 1.0 0.00 0.00 0.00 93 1018.4
20260510130017 45 93 0.0 1.0 0.00 0.00 0.00 93 1018.6
20260510125502 45 68 0.0 1.0 0.00 0.00 0.00 93 1018.7
20260510125004 45 68 0.0 1.0 0.00 0.00 0.00 93 1018.7
20260510124511 45 93 0.0 2.0 0.00 0.00 0.00 93 1018.6
20260510124004 45 61 0.0 2.0 0.00 0.00 0.00 93 1018.7
20260510123505 45 93 0.0 1.0 0.00 0.00 0.00 93 1018.7
20260510123024 45 34 0.0 1.0 0.00 0.00 0.00 93 1018.7
20260510122503 45 34 0.0 1.0 0.00 0.00 0.00 92 1018.7
20260510122005 45 9 0.0 1.0 0.00 0.00 0.00 92 1018.8
20260510121512 45 68 0.0 1.0 0.00 0.00 0.00 92 1018.7
20260510121004 46 9 0.0 2.0 0.00 0.00 0.00 92 1018.6
20260510120507 46 34 0.0 2.0 0.00 0.00 0.00 92 1018.5
20260510120009 46 93 0.0 1.0 0.00 0.00 0.00 92 1018.7
20260510115505 46 51 0.0 1.0 0.00 0.00 0.00 92 1018.5
20260510115004 46 51 0.0 1.0 0.00 0.00 0.00 91 1018.4
20260510114511 46 34 0.0 1.0 0.00 0.00 0.00 91 1018.4
20260510114005 46 51 0.0 1.0 0.00 0.00 0.00 91 1018.3
20260510113503 46 9 0.0 1.0 0.00 0.00 0.00 91 1018.2
20260510113017 47 68 0.0 1.0 0.00 0.00 0.00 91 1018.3
20260510112502 47 51 0.0 1.0 0.00 0.00 0.00 91 1018.4
20260510112003 47 51 0.0 1.0 0.00 0.00 0.00 91 1018.3
20260510111510 47 9 0.0 1.0 0.00 0.00 0.00 91 1018.3
20260510111003 47 51 0.0 1.0 0.00 0.00 0.00 91 1018.2
20260510110505 47 93 0.0 1.0 0.00 0.00 0.00 91 1018.2
20260510110017 47 51 0.0 1.0 0.00 0.00 0.00 91 1018.3
20260510105508 48 51 0.0 1.0 0.00 0.00 0.00 91 1018.4
20260510105003 48 68 0.0 1.0 0.00 0.00 0.00 91 1018.4
20260510104509 48 51 0.0 1.0 0.00 0.00 0.00 91 1018.4
20260510104002 48 68 0.0 1.0 0.00 0.00 0.00 91 1018.4
20260510103503 48 9 0.0 1.0 0.00 0.00 0.00 91 1018.5
20260510103010 48 9 0.0 1.0 0.00 0.00 0.00 91 1018.5
20260510102506 48 9 0.0 1.0 0.00 0.00 0.00 91 1018.5
20260510102005 48 51 0.0 1.0 0.00 0.00 0.00 91 1018.3
20260510101512 48 9 0.0 1.0 0.00 0.00 0.00 91 1018.4
20260510101003 49 51 0.0 1.0 0.00 0.00 0.00 90 1018.2
20260510100504 49 51 0.0 1.0 0.00 0.00 0.00 91 1018.2
20260510100009 49 9 0.0 1.0 0.00 0.00 0.00 91 1018.2
20260510095504 49 93 0.0 1.0 0.00 0.00 0.00 91 1018.2
20260510095007 49 291 0.0 1.0 0.00 0.00 0.00 91 1018.2
20260510094525 49 34 0.0 1.0 0.00 0.00 0.00 91 1018.1
20260510094003 49 9 0.0 1.0 0.00 0.00 0.00 91 1018.1
20260510093502 49 51 0.0 1.0 0.00 0.00 0.00 91 1018.1
20260510093012 49 51 0.0 1.0 0.00 0.00 0.00 91 1018.0
20260510092503 49 325 0.0 2.0 0.00 0.00 0.00 91 1017.9
20260510092006 49 68 0.0 2.0 0.00 0.00 0.00 91 1017.9
20260510091520 49 34 0.0 2.0 0.00 0.00 0.00 91 1017.8
20260510091007 49 68 0.0 2.0 0.00 0.00 0.00 91 1017.7
20260510090503 50 9 0.0 2.0 0.00 0.00 0.00 91 1017.8
20260510090015 50 68 0.0 2.0 0.00 0.00 0.00 91 1017.7
20260510085504 50 9 0.0 1.0 0.00 0.00 0.00 91 1017.7
20260510085004 50 334 0.0 2.0 0.00 0.00 0.00 91 1017.6
20260510084512 50 34 0.0 2.0 0.00 0.00 0.00 91 1017.7
20260510084002 50 61 0.0 2.0 0.00 0.00 0.00 91 1017.7
20260510083501 50 9 0.0 1.0 0.00 0.00 0.00 91 1017.7
20260510083008 50 68 0.0 2.0 0.00 0.00 0.00 91 1017.7
20260510082503 50 9 0.0 3.0 0.00 0.00 0.00 91 1017.6
20260510082003 50 34 0.0 3.0 0.00 0.00 0.00 91 1017.5
20260510081514 50 41 0.0 2.0 0.00 0.00 0.00 92 1017.7
20260510081002 50 93 0.0 2.0 0.00 0.00 0.00 91 1017.7
20260510080502 50 309 0.0 2.0 0.00 0.00 0.00 91 1017.7
20260510080013 50 9 0.0 2.0 0.00 0.00 0.00 91 1017.6
20260510075502 50 316 0.0 2.0 0.00 0.00 0.00 91 1017.6
20260510075003 50 325 0.0 1.0 0.00 0.00 0.00 91 1017.6
20260510074512 50 9 0.0 2.0 0.00 0.00 0.00 91 1017.6
20260510074003 50 34 0.0 2.0 0.00 0.00 0.00 91 1017.7
20260510073511 50 9 0.0 1.0 0.00 0.00 0.00 91 1017.6
20260510073038 50 319 0.0 1.0 0.00 0.00 0.00 90 1017.6
20260510072509 51 51 0.0 1.0 0.00 0.00 0.00 90 1017.7
20260510072011 51 309 0.0 1.0 0.00 0.00 0.00 90 1017.7
20260510071529 51 9 0.0 1.0 0.00 0.00 0.00 90 1017.6
20260510071010 51 51 0.0 0.0 0.00 0.00 0.00 89 1017.5
20260510070510 51 9 0.0 1.0 0.00 0.00 0.00 89 1017.5
20260510070033 51 9 0.0 1.0 0.00 0.00 0.00 88 1017.4
20260510065504 51 9 0.0 1.0 0.00 0.00 0.00 88 1017.5
20260510065003 52 51 0.0 1.0 0.00 0.00 0.00 88 1017.5
20260510064509 52 51 0.0 1.0 0.00 0.00 0.00 88 1017.5
20260510064003 52 93 0.0 1.0 0.00 0.00 0.00 88 1017.5
20260510063503 52 51 0.0 1.0 0.00 0.00 0.00 88 1017.6
20260510063008 52 93 0.0 1.0 0.00 0.00 0.00 88 1017.7
20260510062503 52 51 0.0 1.0 0.00 0.00 0.00 88 1017.7
20260510062007 52 51 0.0 1.0 0.00 0.00 0.00 88 1017.7
20260510061508 52 51 0.0 1.0 0.00 0.00 0.00 89 1017.6
20260510061003 52 51 0.0 1.0 0.00 0.00 0.00 89 1017.6
20260510060504 52 93 0.0 1.0 0.00 0.00 0.00 89 1017.6
20260510060010 53 9 0.0 1.0 0.00 0.00 0.00 89 1017.7
20260510055504 53 265 0.0 1.0 0.00 0.00 0.00 89 1017.7
20260510055003 53 265 0.0 1.0 0.00 0.00 0.00 88 1017.7
20260510054508 53 9 0.0 1.0 0.00 0.00 0.00 88 1017.7
20260510054004 53 9 0.0 1.0 0.00 0.00 0.00 88 1017.6
20260510053503 53 51 0.0 1.0 0.00 0.00 0.00 88 1017.6
20260510053033 53 9 0.0 1.0 0.00 0.00 0.00 87 1017.6
20260510052502 54 51 0.0 1.0 0.00 0.00 0.00 87 1017.6
20260510052002 54 309 0.0 1.0 0.00 0.00 0.00 87 1017.7
20260510051511 54 325 0.0 1.0 0.00 0.00 0.00 86 1017.8
20260510051002 54 9 0.0 1.0 0.00 0.00 0.00 86 1017.8
20260510050502 55 309 0.0 1.0 0.00 0.00 0.00 85 1017.6
20260510050008 55 51 0.0 1.0 0.00 0.00 0.00 84 1017.6
20260510045504 55 9 0.0 1.0 0.00 0.00 0.00 84 1017.6
20260510045003 56 309 0.0 1.0 0.00 0.00 0.00 83 1017.7
20260510044508 56 51 0.0 0.0 0.00 0.00 0.00 83 1017.6
20260510044004 56 309 0.0 1.0 0.00 0.00 0.00 82 1017.6
20260510043504 56 51 0.0 1.0 0.00 0.00 0.00 82 1017.5
20260510043024 57 51 0.0 1.0 0.00 0.00 0.00 82 1017.4
20260510042505 57 9 0.0 1.0 0.00 0.00 0.00 81 1017.4
20260510042003 57 309 0.0 1.0 0.00 0.00 0.00 80 1017.4
20260510041521 58 325 0.0 1.0 0.00 0.00 0.00 80 1017.4
20260510041002 58 51 0.0 1.0 0.00 0.00 0.00 79 1017.4
20260510040502 59 309 0.0 1.0 0.00 0.00 0.00 79 1017.5
20260510040019 59 309 0.0 1.0 0.00 0.00 0.00 77 1017.5
20260510035503 60 51 0.0 1.0 0.00 0.00 0.00 76 1017.4
20260510035003 60 93 0.0 1.0 0.00 0.00 0.00 75 1017.4
20260510034521 60 51 0.0 1.0 0.00 0.00 0.00 74 1017.3
20260510034008 61 309 0.0 1.0 0.00 0.00 0.00 74 1017.3
20260510033508 61 9 0.0 1.0 0.00 0.00 0.00 72 1017.3
20260510033017 61 360 0.0 1.0 0.00 0.00 0.00 72 1017.3
20260510032508 62 265 0.0 1.0 0.00 0.00 0.00 72 1017.3
20260510032007 62 93 0.0 1.0 0.00 0.00 0.00 72 1017.3
20260510031523 62 93 0.0 1.0 0.00 0.00 0.00 71 1017.4
20260510031005 62 68 0.0 1.0 0.00 0.00 0.00 72 1017.4
20260510030508 63 9 0.0 1.0 0.00 0.00 0.00 71 1017.5
20260510030020 63 51 0.0 1.0 0.00 0.00 0.00 71 1017.4
20260510025507 63 51 0.0 1.0 0.00 0.00 0.00 70 1017.6
20260510025007 64 51 0.0 1.0 0.00 0.00 0.00 68 1017.7
20260510024520 64 51 0.0 1.0 0.00 0.00 0.00 69 1017.7
20260510024010 64 51 0.0 1.0 0.00 0.00 0.00 68 1017.8
20260510023506 64 9 0.0 2.0 0.00 0.00 0.00 70 1017.8
20260510023020 64 137 0.0 2.0 0.00 0.00 0.00 69 1017.7
20260510022508 64 38 0.0 2.0 0.00 0.00 0.00 71 1017.8
20260510022009 64 68 0.0 2.0 0.00 0.00 0.00 66 1017.9
20260510021536 64 93 0.0 2.0 0.00 0.00 0.00 65 1018.0
20260510021008 64 19 0.0 1.0 0.00 0.00 0.00 66 1018.0
20260510020509 64 51 0.0 2.0 0.00 0.00 0.00 65 1018.1
20260510020020 64 265 0.0 2.0 0.00 0.00 0.00 65 1018.1
20260510015508 65 51 0.0 2.0 0.00 0.00 0.00 65 1018.2
20260510015010 65 34 0.0 2.0 0.00 0.00 0.00 65 1018.3
20260510014529 65 93 0.0 2.0 0.00 0.00 0.00 64 1018.3
20260510014007 65 265 0.0 3.0 0.00 0.00 0.00 64 1018.4
20260510013509 65 51 0.0 4.0 0.00 0.00 0.00 64 1018.4
20260510013026 65 22 1.0 4.0 0.00 0.00 0.00 64 1018.4
20260510012507 65 61 2.0 4.0 0.00 0.00 0.00 63 1018.5
20260510012010 65 41 0.0 3.0 0.00 0.00 0.00 67 1018.6
20260510011525 65 120 1.0 3.0 0.00 0.00 0.00 65 1018.6
20260510011007 66 68 0.0 2.0 0.00 0.00 0.00 66 1018.6
20260510010508 66 57 1.0 2.0 0.00 0.00 0.00 64 1018.6
20260510010024 66 115 0.0 2.0 0.00 0.00 0.00 64 1018.7
20260510005509 66 9 0.0 7.0 0.00 0.00 0.00 66 1018.8
20260510005011 66 325 4.0 7.0 0.00 0.00 0.00 63 1018.7
20260510004531 66 45 2.0 4.0 0.00 0.00 0.00 63 1018.7
20260510004004 66 137 1.0 3.0 0.00 0.00 0.00 63 1018.9
20260510003504 66 205 0.0 2.0 0.00 0.00 0.00 64 1018.8
20260510003008 66 43 1.0 4.0 0.00 0.00 0.00 63 1018.9
20260510002503 66 51 0.0 4.0 0.00 0.00 0.00 63 1018.9
20260510002006 66 9 0.0 3.0 0.00 0.00 0.00 64 1019.0
20260510001509 66 131 1.0 4.0 0.00 0.00 0.00 64 1019.0
20260510001003 66 247 1.0 8.0 0.00 0.00 0.00 64 1019.1
20260510000503 66 75 4.0 8.0 0.00 0.00 0.00 62 1019.1
20260510000010 66 9 2.0 7.0 0.00 0.00 0.00 62 1019.2
20260509235505 66 41 2.0 6.0 0.00 0.00 0.00 64 1019.3
20260509235005 66 34 1.0 6.0 0.00 0.00 0.00 63 1019.3
20260509234507 66 15 4.0 6.0 0.00 0.00 0.00 62 1019.3
20260509234006 66 239 1.0 4.0 0.00 0.00 0.00 63 1019.3
20260509233501 66 325 1.0 4.0 0.00 0.00 0.00 63 1019.3
20260509233008 66 178 1.0 7.0 0.00 0.00 0.00 64 1019.4
20260509232503 66 205 1.0 7.0 0.00 0.00 0.00 62 1019.5
20260509232003 67 44 2.0 6.0 0.00 0.00 0.00 63 1019.7
20260509231506 67 24 2.0 5.0 0.00 0.00 0.00 62 1019.6
20260509231008 67 338 1.0 6.0 0.00 0.00 0.00 62 1019.6
20260509230504 67 51 2.0 6.0 0.00 0.00 0.00 63 1019.7
20260509230009 67 24 1.0 6.0 0.00 0.00 0.00 62 1020.0
20260509225503 67 205 2.0 7.0 0.00 0.00 0.00 63 1020.0
20260509225004 67 336 2.0 7.0 0.00 0.00 0.00 63 1020.1